Content
SEND FEEDBACK

Daily
Averages
Monthly
Summary
United States of America

UMATAC, GUAM


Home > North America > United States > Guam
Elevation: 190 feet     Latitude: 13 17N     Longitude: 144 40E

WEATHER
 
SELECT A DAY
Number of Records: 351,709;   Date Range: 1/1/95 - 10/22/14
 
SHARE

PRINT THIS DATA

[ ← Previous Day ]
WEATHER ALMANAC - JULY 20, 2014
[ Next Day → ]
[ °C ]   °F
Weather ElementAverageHighLow
Temperature80 °F84.6 °F (11:58 am)75.2 °F (12:40 am)
Dewpoint75.4 °F77 °F (12:58 pm)71.6 °F (7:58 pm)
Humidity86.2 %95 % (1:58 am)71 % (7:58 pm)
Barometer29.83 in29.87 in (12:15 am)29.78 in (3:58 pm)
Wind Speed8.9 mph13.8 mph (12:15 am)
Weather ElementAverage
Visibility9.2 mi
Wind DirectionENE (52.9 °)

Weather ElementTotal
Precipitation0.17 in
Cooling Degree Days14.9 (Base 65)
Growing Degree Days29.9 (Base 50)
Averaged from 41 records on July 20, 2014
WEATHER CONDITIONS BREAKOUT
WIND DIRECTION BREAKOUT
WEATHER BY HOUR - JULY 20, 2014
[ °C ]   °F
Local TimeTemperatureDewpointHumidityBarometerVisibilityWind DirectionWind SpeedGust SpeedPrecipitationEventsConditions
12:15 AM77.0 °F75.2 °F94 %29.87 in9.0 miEast (90°)13.8 mphRainLight Rain
12:20 AM77.0 °F75.2 °F94 %29.87 in4.0 miEast (100°)11.5 mphRainHeavy Rain
12:25 AM77.0 °F75.2 °F94 %29.87 in2.5 miESE (110°)8.1 mphRainRain
12:30 AM77.0 °F75.2 °F94 %29.87 in4.0 miEast (100°)9.2 mphRainLight Rain
12:40 AM75.2 °F73.4 °F94 %29.86 in10.0 miESE (110°)5.8 mphRainLight Rain
12:47 AM75.2 °F73.4 °F94 %29.86 in10.0 miESE (120°)8.1 mphScattered Clouds
12:58 AM76.3 °F74.5 °F94 %29.83 in10.0 miSE (130°)8.1 mph0.05 inScattered Clouds
1:58 AM76.1 °F74.5 °F95 %29.81 in10.0 miSouth (180°)2.3 mphScattered Clouds
2:58 AM76.1 °F73.9 °F93 %29.79 in10.0 miSouth (190°)4.6 mphClear
3:58 AM76.3 °F72.9 °F89 %29.79 in10.0 miCalmClear
4:58 AM76.3 °F73.0 °F90 %29.79 in10.0 miCalmClear
5:58 AM77.4 °F73.0 °F86 %29.81 in10.0 miENE (60°)5.8 mphClear
6:58 AM78.1 °F75.4 °F91 %29.83 in10.0 miENE (70°)4.6 mphClear
7:58 AM80.4 °F76.3 °F87 %29.84 in10.0 miNE (50°)8.1 mphClear
8:58 AM82.8 °F76.6 °F82 %29.84 in10.0 miNNE (30°)9.2 mphClear
9:58 AM82.2 °F76.6 °F83 %29.83 in10.0 miNNE (30°)11.5 mphPartly Cloudy
10:58 AM83.3 °F76.8 °F81 %29.84 in10.0 miNNE (30°)12.7 mphScattered Clouds
11:58 AM84.6 °F76.1 °F76 %29.82 in10.0 miNNE (20°)12.7 mphScattered Clouds
12:58 PM84.2 °F77.0 °F79 %29.81 in10.0 miNE (50°)9.2 mphLight Drizzle
1:44 PM82.4 °F77.0 °F84 %29.84 in10.0 miNE (40°)8.1 mphScattered Clouds
1:58 PM83.5 °F75.7 °F77 %29.81 in10.0 miENE (70°)9.2 mph0.00 inPartly Cloudy
2:37 PM82.4 °F75.2 °F79 %29.83 in10.0 miENE (60°)9.2 mphLight Drizzle
2:58 PM81.1 °F75.9 °F84 %29.79 in10.0 miENE (60°)9.2 mph0.00 inRainLight Rain
3:57 PM82.4 °F75.2 °F79 %29.81 in10.0 miNNE (20°)12.7 mphClear
3:58 PM81.7 °F75.6 °F82 %29.78 in10.0 miNNE (20°)12.7 mph0.00 inClear
4:58 PM82.6 °F74.7 °F77 %29.79 in10.0 miNE (40°)9.2 mph0.00 inMostly Cloudy
5:58 PM82.0 °F74.3 °F77 %29.79 in10.0 miNNE (30°)6.9 mphPartly Cloudy
6:58 PM81.5 °F73.0 °F75 %29.81 in10.0 miNE (40°)6.9 mphScattered Clouds
7:58 PM81.7 °F71.6 °F71 %29.81 in10.0 miNNE (20°)9.2 mphPartly Cloudy
8:58 PM81.5 °F73.8 °F77 %29.82 in10.0 miNNE (20°)11.5 mphMostly Cloudy
9:41 PM80.6 °F75.2 °F84 %29.86 in10.0 miNNE (30°)11.5 mphLight Drizzle
9:56 PM80.6 °F77.0 °F89 %29.87 in10.0 miNNE (30°)9.2 mphRainLight Rain
9:58 PM80.6 °F77.0 °F89 %29.84 in10.0 miNNE (30°)9.2 mph0.00 inRainLight Rain
10:33 PM80.6 °F77.0 °F89 %29.85 in10.0 miNNE (20°)12.7 mphRainLight Rain
10:48 PM80.6 °F77.0 °F89 %29.86 in10.0 miNNE (20°)10.4 mphRainLight Rain
10:53 PM80.6 °F77.0 °F89 %29.86 in10.0 miNNE (30°)9.2 mphRainLight Rain
10:58 PM80.4 °F76.6 °F88 %29.83 in10.0 miNNE (30°)11.5 mph0.02 inRainLight Rain
11:03 PM80.6 °F77.0 °F89 %29.86 in10.0 miNE (40°)10.4 mphRainLight Rain
11:43 PM80.6 °F77.0 °F89 %29.86 in7.0 miNNE (20°)10.4 mphRainRain
11:48 PM78.8 °F77.0 °F94 %29.85 in6.0 miNNE (20°)9.2 mphRainRain
11:58 PM79.5 °F77.0 °F92 %29.82 in6.0 miNorth (10°)10.4 mph0.10 inRainRain
Hourly data recorded from PGUA, located miles away from Umatac, Guam







STORIES FROM OUR PARTNERS